• In Uzbekistan
  • List of Countries
  • For 7 days
  • Water Temperature
  • Satellite Maps
  • Weather Map
  • Weather Widgets
  • user-avatar
    Login

    Hourly Weather Dubai

    Today, 14 December, Thursday

    Time Temperature Precipitation Wind Pressure Humidity
    00:00 +20°C° 0 mm 4 mps 761 mmHg 47%
    01:00 +20°C° 0 mm 3 mps 761 mmHg 47%
    02:00 +20°C° 0 mm 3 mps 761 mmHg 48%
    03:00 +20°C° 0 mm 3 mps 761 mmHg 49%
    04:00 +20°C° 0 mm 4 mps 761 mmHg 49%
    05:00 +20°C° 0 mm 4 mps 761 mmHg 50%
    06:00 +20°C° 0 mm 4 mps 762 mmHg 51%
    07:00 +19°C° 0 mm 4 mps 762 mmHg 52%
    08:00 +21°C° 0 mm 4 mps 762 mmHg 47%
    09:00 +23°C° 0 mm 4 mps 762 mmHg 43%
    10:00 +26°C° 0 mm 4 mps 763 mmHg 38%
    11:00 +26°C° 0 mm 4 mps 763 mmHg 37%
    12:00 +27°C° 0 mm 3 mps 762 mmHg 36%
    13:00 +28°C° 0 mm 3 mps 762 mmHg 35%
    14:00 +28°C° 0 mm 3 mps 762 mmHg 35%
    15:00 +28°C° 0 mm 3 mps 761 mmHg 35%
    16:00 +28°C° 0 mm 3 mps 761 mmHg 35%
    17:00 +27°C° 0 mm 3 mps 761 mmHg 38%
    18:00 +26°C° 0 mm 3 mps 761 mmHg 42%
    19:00 +25°C° 0 mm 4 mps 762 mmHg 45%
    20:00 +23°C° 0 mm 4 mps 762 mmHg 48%
    21:00 +23°C° 0 mm 5 mps 762 mmHg 50%
    22:00 +22°C° 0 mm 5 mps 762 mmHg 53%
    23:00 +22°C° 0 mm 5 mps 762 mmHg 54%

    Tomorrow, 15 December, Friday

    Time Temperature Precipitation Wind Pressure Humidity
    00:00 +22°C° 0 mm 5 mps 762 mmHg 55%
    01:00 +22°C° 0 mm 5 mps 762 mmHg 56%
    02:00 +22°C° 0 mm 5 mps 761 mmHg 57%
    03:00 +21°C° 0 mm 5 mps 761 mmHg 59%
    04:00 +21°C° 0 mm 5 mps 761 mmHg 60%
    05:00 +21°C° 0 mm 5 mps 761 mmHg 61%
    06:00 +21°C° 0 mm 5 mps 762 mmHg 63%
    07:00 +21°C° 0 mm 5 mps 762 mmHg 64%
    08:00 +22°C° 0 mm 6 mps 762 mmHg 58%
    09:00 +24°C° 0 mm 6 mps 763 mmHg 52%
    10:00 +26°C° 0 mm 6 mps 763 mmHg 46%
    11:00 +27°C° 0 mm 6 mps 763 mmHg 45%
    12:00 +27°C° 0 mm 5 mps 762 mmHg 43%
    13:00 +28°C° 0 mm 5 mps 762 mmHg 42%
    14:00 +27°C° 0 mm 4 mps 762 mmHg 42%
    15:00 +27°C° 0 mm 4 mps 762 mmHg 43%
    16:00 +27°C° 0 mm 3 mps 761 mmHg 44%
    17:00 +26°C° 0 mm 4 mps 762 mmHg 48%
    18:00 +26°C° 0 mm 4 mps 762 mmHg 52%
    19:00 +25°C° 0 mm 5 mps 762 mmHg 57%
    20:00 +24°C° 0.1 mm 6 mps 762 mmHg 57%
    21:00 +23°C° 0.1 mm 6 mps 762 mmHg 58%
    22:00 +23°C° 0.1 mm 7 mps 763 mmHg 59%
    23:00 +23°C° 0.2 mm 6 mps 763 mmHg 59%

    Day after tomorrow, 16 December, Saturday

    Time Temperature Precipitation Wind Pressure Humidity
    00:00 +23°C° 0.2 mm 5 mps 763 mmHg 59%
    01:00 +22°C° 0.2 mm 5 mps 762 mmHg 59%
    02:00 +22°C° 0 mm 4 mps 762 mmHg 60%
    03:00 +22°C° 0 mm 4 mps 762 mmHg 61%
    04:00 +22°C° 0 mm 4 mps 762 mmHg 61%
    05:00 +21°C° 0.4 mm 4 mps 763 mmHg 63%
    06:00 +21°C° 0.4 mm 4 mps 763 mmHg 65%
    07:00 +20°C° 0.4 mm 4 mps 763 mmHg 67%
    08:00 +22°C° 0.2 mm 4 mps 764 mmHg 61%
    09:00 +24°C° 0.2 mm 3 mps 764 mmHg 55%
    10:00 +25°C° 0.2 mm 3 mps 765 mmHg 50%
    11:00 +26°C° 0.1 mm 3 mps 764 mmHg 46%
    12:00 +26°C° 0.1 mm 2 mps 764 mmHg 43%
    13:00 +27°C° 0.1 mm 2 mps 763 mmHg 40%
    14:00 +26°C° 0.7 mm 4 mps 763 mmHg 45%
    15:00 +24°C° 0.7 mm 6 mps 763 mmHg 50%
    16:00 +24°C° 0.7 mm 8 mps 763 mmHg 55%
    17:00 +23°C° 0.3 mm 8 mps 763 mmHg 58%
    18:00 +23°C° 0.3 mm 8 mps 764 mmHg 60%
    19:00 +22°C° 0.3 mm 8 mps 764 mmHg 63%
    20:00 +22°C° 0.2 mm 7 mps 764 mmHg 63%
    21:00 +22°C° 0.2 mm 7 mps 764 mmHg 63%
    22:00 +21°C° 0.2 mm 6 mps 764 mmHg 64%
    23:00 +21°C° 0 mm 6 mps 764 mmHg 65%

    17 December, Sunday

    Time Temperature Precipitation Wind Pressure Humidity
    00:00 +21°C° 0 mm 5 mps 764 mmHg 66%
    01:00 +21°C° 0 mm 5 mps 764 mmHg 67%
    02:00 +21°C° 0 mm 5 mps 764 mmHg 68%
    03:00 +20°C° 0 mm 4 mps 763 mmHg 69%
    04:00 +20°C° 0 mm 4 mps 763 mmHg 70%
    05:00 +20°C° 0 mm 4 mps 764 mmHg 70%
    06:00 +20°C° 0 mm 4 mps 764 mmHg 70%
    07:00 +20°C° 0 mm 4 mps 764 mmHg 70%
    08:00 +21°C° 0.2 mm 4 mps 765 mmHg 64%
    09:00 +22°C° 0.2 mm 4 mps 765 mmHg 59%
    10:00 +24°C° 0.2 mm 3 mps 766 mmHg 53%
    11:00 +25°C° 0.4 mm 3 mps 765 mmHg 51%
    12:00 +26°C° 0.4 mm 3 mps 765 mmHg 48%
    13:00 +26°C° 0.4 mm 3 mps 764 mmHg 45%
    14:00 +26°C° 0.1 mm 4 mps 764 mmHg 46%
    15:00 +26°C° 0.1 mm 4 mps 764 mmHg 48%
    16:00 +26°C° 0.1 mm 5 mps 763 mmHg 49%
    17:00 +25°C° 0.2 mm 5 mps 764 mmHg 51%
    18:00 +25°C° 0.2 mm 5 mps 764 mmHg 53%
    19:00 +23°C° 0.2 mm 4 mps 765 mmHg 54%
    20:00 +23°C° 0 mm 4 mps 765 mmHg 56%
    21:00 +22°C° 0 mm 4 mps 765 mmHg 58%
    22:00 +22°C° 0 mm 4 mps 765 mmHg 60%
    23:00 +21°C° 0 mm 3 mps 765 mmHg 62%

    18 December, Monday

    Time Temperature Precipitation Wind Pressure Humidity
    00:00 +21°C° 0 mm 3 mps 765 mmHg 63%
    01:00 +21°C° 0 mm 3 mps 765 mmHg 64%
    02:00 +21°C° 0 mm 3 mps 765 mmHg 64%
    03:00 +20°C° 0 mm 2 mps 765 mmHg 65%
    04:00 +20°C° 0 mm 2 mps 765 mmHg 65%
    05:00 +20°C° 0 mm 2 mps 765 mmHg 65%
    06:00 +20°C° 0 mm 2 mps 765 mmHg 66%
    07:00 +20°C° 0 mm 2 mps 766 mmHg 66%
    08:00 +21°C° 0 mm 2 mps 766 mmHg 60%
    09:00 +23°C° 0 mm 2 mps 766 mmHg 54%
    10:00 +24°C° 0 mm 2 mps 767 mmHg 48%
    11:00 +25°C° 0 mm 2 mps 766 mmHg 45%
    12:00 +26°C° 0 mm 2 mps 766 mmHg 42%
    13:00 +26°C° 0 mm 2 mps 765 mmHg 39%
    14:00 +26°C° 0 mm 3 mps 765 mmHg 40%
    15:00 +26°C° 0 mm 4 mps 764 mmHg 42%
    16:00 +26°C° 0 mm 4 mps 764 mmHg 43%
    17:00 +26°C° 0 mm 4 mps 764 mmHg 47%
    18:00 +25°C° 0 mm 4 mps 765 mmHg 50%
    19:00 +23°C° 0 mm 4 mps 765 mmHg 54%
    20:00 +24°C° 0 mm 3 mps 765 mmHg 56%
    21:00 +22°C° 0 mm 3 mps 765 mmHg 57%
    22:00 +22°C° 0 mm 3 mps 766 mmHg 58%
    23:00 +23°C° 0 mm 2 mps 765 mmHg 60%

    19 December, Tuesday

    Time Temperature Precipitation Wind Pressure Humidity
    00:00 +21°C° 0 mm 2 mps 765 mmHg 61%
    01:00 +21°C° 0 mm 2 mps 765 mmHg 63%
    02:00 +21°C° 0 mm 2 mps 765 mmHg 64%
    03:00 +20°C° 0 mm 2 mps 765 mmHg 66%
    04:00 +20°C° 0 mm 2 mps 765 mmHg 67%
    05:00 +20°C° 0 mm 2 mps 765 mmHg 68%
    06:00 +20°C° 0 mm 2 mps 766 mmHg 69%
    07:00 +19°C° 0 mm 2 mps 766 mmHg 69%
    08:00 +21°C° 0 mm 2 mps 766 mmHg 62%
    09:00 +23°C° 0 mm 2 mps 767 mmHg 55%
    10:00 +24°C° 0 mm 2 mps 767 mmHg 47%
    11:00 +25°C° 0 mm 2 mps 766 mmHg 44%
    12:00 +26°C° 0 mm 2 mps 766 mmHg 41%
    13:00 +26°C° 0 mm 2 mps 765 mmHg 37%
    14:00 +26°C° 0 mm 2 mps 765 mmHg 39%
    15:00 +26°C° 0 mm 3 mps 765 mmHg 40%
    16:00 +26°C° 0 mm 3 mps 765 mmHg 42%
    17:00 +25°C° 0 mm 3 mps 765 mmHg 46%
    18:00 +24°C° 0 mm 3 mps 765 mmHg 50%
    19:00 +24°C° 0 mm 3 mps 765 mmHg 54%
    20:00 +23°C° 0 mm 2 mps 766 mmHg 55%
    21:00 +23°C° 0 mm 2 mps 766 mmHg 55%
    22:00 +21°C° 0 mm 2 mps 766 mmHg 56%
    23:00 +21°C° 0 mm 2 mps 766 mmHg 56%
    Show more